Time,TemperatureF,DewpointF,PressureIn,WindDirection,WindDirectionDegrees,WindSpeedMPH,WindSpeedGustMPH,Humidity,HourlyPrecipIn,Conditions,Clouds,dailyrainin,SoftwareType,DateUTC
2013-05-22 00:21:00,61.0,46.0,29.64,SW,230,7.0,8.0,58,0.00,,,-99.99,,2013-05-22 07:21:00,
2013-05-22 00:31:00,61.0,46.0,29.64,SW,230,7.0,8.0,58,0.00,,,-99.99,,2013-05-22 07:31:00,
2013-05-22 00:41:00,61.0,46.0,29.64,SW,230,7.0,8.0,58,0.00,,,-99.99,,2013-05-22 07:41:00,
2013-05-22 00:51:00,59.0,47.0,29.64,WSW,250,6.0,11.0,65,0.00,,,-99.99,,2013-05-22 07:51:00,
2013-05-22 01:22:00,59.0,47.0,29.64,WSW,250,6.0,11.0,65,0.00,,,-99.99,,2013-05-22 08:22:00,
2013-05-22 01:31:00,59.0,47.0,29.64,WSW,250,6.0,11.0,65,0.00,,,-99.99,,2013-05-22 08:31:00,
2013-05-22 01:41:00,59.0,47.0,29.64,WSW,250,6.0,11.0,65,0.00,,,-99.99,,2013-05-22 08:41:00,
2013-05-22 01:51:00,58.0,45.0,29.65,West,280,6.0,12.0,61,0.00,,,-99.99,,2013-05-22 08:51:00,
2013-05-22 02:21:00,58.0,45.0,29.65,West,280,6.0,12.0,61,0.00,,,-99.99,,2013-05-22 09:21:00,
2013-05-22 02:32:00,58.0,45.0,29.65,West,280,6.0,12.0,61,0.00,,,-99.99,,2013-05-22 09:32:00,
2013-05-22 02:42:00,58.0,45.0,29.65,West,280,6.0,12.0,61,0.00,,,-99.99,,2013-05-22 09:42:00,
2013-05-22 02:51:00,57.0,44.0,29.63,NW,310,4.0,8.0,62,0.00,,,-99.99,,2013-05-22 09:51:00,
2013-05-22 03:22:00,57.0,44.0,29.63,NW,310,4.0,8.0,62,0.00,,,-99.99,,2013-05-22 10:22:00,
2013-05-22 03:33:00,57.0,44.0,29.63,NW,310,4.0,8.0,62,0.00,,,-99.99,,2013-05-22 10:33:00,
2013-05-22 03:42:00,57.0,44.0,29.63,NW,310,4.0,8.0,62,0.00,,,-99.99,,2013-05-22 10:42:00,
2013-05-22 03:51:00,57.0,42.0,29.62,WSW,250,6.0,8.0,58,0.00,,,-99.99,,2013-05-22 10:51:00,
2013-05-22 04:21:00,57.0,42.0,29.62,WSW,250,6.0,8.0,58,0.00,,,-99.99,,2013-05-22 11:21:00,
2013-05-22 04:32:00,57.0,42.0,29.62,WSW,250,6.0,8.0,58,0.00,,,-99.99,,2013-05-22 11:32:00,
2013-05-22 04:41:00,57.0,42.0,29.62,WSW,250,6.0,8.0,58,0.00,,,-99.99,,2013-05-22 11:41:00,
2013-05-22 04:51:00,57.0,41.0,29.62,West,260,3.0,7.0,56,0.00,,,-99.99,,2013-05-22 11:51:00,
2013-05-22 05:22:00,57.0,41.0,29.62,West,260,3.0,7.0,56,0.00,,,-99.99,,2013-05-22 12:22:00,
2013-05-22 05:32:00,57.0,41.0,29.62,West,260,3.0,7.0,56,0.00,,,-99.99,,2013-05-22 12:32:00,
2013-05-22 05:42:00,57.0,41.0,29.62,West,260,3.0,7.0,56,0.00,,,-99.99,,2013-05-22 12:42:00,
2013-05-22 05:51:00,55.0,44.0,29.62,West,270,4.0,6.0,66,0.00,,,-99.99,,2013-05-22 12:51:00,
2013-05-22 06:22:00,55.0,44.0,29.62,West,270,4.0,6.0,66,0.00,,,-99.99,,2013-05-22 13:22:00,
2013-05-22 06:32:00,55.0,44.0,29.62,West,270,4.0,6.0,66,0.00,,,-99.99,,2013-05-22 13:32:00,
2013-05-22 06:41:00,55.0,44.0,29.62,West,270,4.0,6.0,66,0.00,,,-99.99,,2013-05-22 13:41:00,
2013-05-22 06:51:00,57.0,47.0,29.63,West,260,6.0,11.0,68,0.00,,,-99.99,,2013-05-22 13:51:00,
2013-05-22 07:21:00,57.0,47.0,29.63,West,260,6.0,11.0,68,0.00,,,-99.99,,2013-05-22 14:21:00,
2013-05-22 07:32:00,57.0,47.0,29.63,West,260,6.0,11.0,68,0.00,,,-99.99,,2013-05-22 14:32:00,
2013-05-22 07:41:00,57.0,47.0,29.63,West,260,6.0,11.0,68,0.00,,,-99.99,,2013-05-22 14:41:00,
2013-05-22 07:51:00,63.0,43.0,29.61,SW,230,6.0,11.0,48,0.00,,,-99.99,,2013-05-22 14:51:00,
2013-05-22 08:21:00,63.0,43.0,29.61,SW,230,6.0,11.0,48,0.00,,,-99.99,,2013-05-22 15:21:00,
2013-05-22 08:32:00,63.0,43.0,29.61,SW,230,6.0,11.0,48,0.00,,,-99.99,,2013-05-22 15:32:00,
2013-05-22 08:42:00,63.0,43.0,29.61,SW,230,6.0,11.0,48,0.00,,,-99.99,,2013-05-22 15:42:00,
2013-05-22 08:51:00,66.0,41.0,29.61,SSW,210,10.0,17.0,40,0.00,,,-99.99,,2013-05-22 15:51:00,
2013-05-22 09:23:00,66.0,41.0,29.61,SSW,210,10.0,17.0,40,0.00,,,-99.99,,2013-05-22 16:23:00,
2013-05-22 09:32:00,66.0,41.0,29.61,SSW,210,10.0,17.0,40,0.00,,,-99.99,,2013-05-22 16:32:00,
2013-05-22 09:42:00,66.0,41.0,29.61,SSW,210,10.0,17.0,40,0.00,,,-99.99,,2013-05-22 16:42:00,
2013-05-22 09:51:00,72.0,39.0,29.59,SSW,200,21.0,30.0,30,0.00,,,-99.99,,2013-05-22 16:51:00,
2013-05-22 10:22:00,72.0,39.0,29.59,SSW,200,21.0,30.0,30,0.00,,,-99.99,,2013-05-22 17:22:00,
2013-05-22 10:32:00,72.0,39.0,29.59,SSW,200,21.0,30.0,30,0.00,,,-99.99,,2013-05-22 17:32:00,
2013-05-22 10:42:00,72.0,39.0,29.59,SSW,200,21.0,30.0,30,0.00,,,-99.99,,2013-05-22 17:42:00,
2013-05-22 10:51:00,71.0,40.0,29.60,SSW,210,18.0,30.0,32,0.00,,,-99.99,,2013-05-22 17:51:00,
2013-05-22 11:22:00,71.0,40.0,29.60,SSW,210,18.0,30.0,32,0.00,,,-99.99,,2013-05-22 18:22:00,
2013-05-22 11:33:00,71.0,40.0,29.60,SSW,210,18.0,30.0,32,0.00,,,-99.99,,2013-05-22 18:33:00,
2013-05-22 11:42:00,71.0,40.0,29.60,SSW,210,18.0,30.0,32,0.00,,,-99.99,,2013-05-22 18:42:00,
2013-05-22 11:51:00,70.0,40.0,29.63,South,190,25.0,36.0,33,0.00,,,-99.99,,2013-05-22 18:51:00,
2013-05-22 12:21:00,70.0,40.0,29.63,South,190,25.0,36.0,33,0.00,,,-99.99,,2013-05-22 19:21:00,
2013-05-22 12:32:00,70.0,40.0,29.63,South,190,25.0,36.0,33,0.00,,,-99.99,,2013-05-22 19:32:00,
2013-05-22 12:42:00,70.0,40.0,29.63,South,190,25.0,36.0,33,0.00,,,-99.99,,2013-05-22 19:42:00,
2013-05-22 12:51:00,71.0,45.0,29.62,SSW,200,16.0,33.0,40,0.00,,,-99.99,,2013-05-22 19:51:00,
2013-05-22 13:21:00,71.0,45.0,29.62,SSW,200,16.0,33.0,40,0.00,,,-99.99,,2013-05-22 20:21:00,
2013-05-22 13:32:00,71.0,45.0,29.62,SSW,200,16.0,33.0,40,0.00,,,-99.99,,2013-05-22 20:32:00,
2013-05-22 13:41:00,71.0,45.0,29.62,SSW,200,16.0,33.0,40,0.00,,,-99.99,,2013-05-22 20:41:00,
2013-05-22 13:51:00,71.0,47.0,29.62,SW,220,25.0,34.0,42,0.00,,,-99.99,,2013-05-22 20:51:00,
2013-05-22 14:21:00,71.0,47.0,29.62,SW,220,25.0,34.0,42,0.00,,,-99.99,,2013-05-22 21:21:00,
2013-05-22 14:32:00,71.0,47.0,29.62,SW,220,25.0,34.0,42,0.00,,,-99.99,,2013-05-22 21:32:00,
2013-05-22 14:42:00,71.0,47.0,29.62,SW,220,25.0,34.0,42,0.00,,,-99.99,,2013-05-22 21:42:00,
2013-05-22 15:51:00,71.0,47.0,29.59,South,190,24.0,42.0,42,0.00,,,-99.99,,2013-05-22 22:51:00,
2013-05-22 16:21:00,71.0,47.0,29.59,South,190,24.0,42.0,42,0.00,,,-99.99,,2013-05-22 23:21:00,
2013-05-22 16:32:00,71.0,47.0,29.59,South,190,24.0,42.0,42,0.00,,,-99.99,,2013-05-22 23:32:00,
2013-05-22 16:42:00,71.0,47.0,29.59,South,190,24.0,42.0,42,0.00,,,-99.99,,2013-05-22 23:42:00,
2013-05-22 16:51:00,70.0,49.0,29.58,SSE,160,20.0,34.0,47,0.00,,,-99.99,,2013-05-22 23:51:00,
2013-05-22 17:22:00,70.0,49.0,29.58,SSE,160,20.0,34.0,47,0.00,,,-99.99,,2013-05-23 00:22:00,
2013-05-22 17:31:00,70.0,49.0,29.58,SSE,160,20.0,34.0,47,0.00,,,-99.99,,2013-05-23 00:31:00,
2013-05-22 17:42:00,70.0,49.0,29.58,SSE,160,20.0,34.0,47,0.00,,,-99.99,,2013-05-23 00:42:00,
2013-05-22 17:51:00,69.0,47.0,29.59,South,190,18.0,29.0,45,0.00,,,-99.99,,2013-05-23 00:51:00,
2013-05-22 18:21:00,69.0,47.0,29.59,South,190,18.0,29.0,45,0.00,,,-99.99,,2013-05-23 01:21:00,
2013-05-22 18:32:00,69.0,47.0,29.59,South,190,18.0,29.0,45,0.00,,,-99.99,,2013-05-23 01:32:00,
2013-05-22 18:42:00,69.0,47.0,29.59,South,190,18.0,29.0,45,0.00,,,-99.99,,2013-05-23 01:42:00,
2013-05-22 18:51:00,64.0,47.0,29.60,SSE,150,13.0,33.0,54,0.00,,,-99.99,,2013-05-23 01:51:00,
2013-05-22 19:21:00,64.0,47.0,29.60,SSE,150,13.0,33.0,54,0.00,,,-99.99,,2013-05-23 02:21:00,
2013-05-22 19:31:00,64.0,47.0,29.60,SSE,150,13.0,33.0,54,0.00,,,-99.99,,2013-05-23 02:31:00,
2013-05-22 19:42:00,64.0,47.0,29.60,SSE,150,13.0,33.0,54,0.00,,,-99.99,,2013-05-23 02:42:00,
2013-05-22 19:51:00,59.0,50.0,29.61,South,190,16.0,26.0,73,0.00,,,-99.99,,2013-05-23 02:51:00,
2013-05-22 20:21:00,59.0,50.0,29.61,South,190,16.0,26.0,73,0.00,,,-99.99,,2013-05-23 03:21:00,
2013-05-22 20:33:00,59.0,50.0,29.61,South,190,16.0,26.0,73,0.00,,,-99.99,,2013-05-23 03:33:00,
2013-05-22 20:43:00,59.0,50.0,29.61,South,190,16.0,26.0,73,0.00,,,-99.99,,2013-05-23 03:43:00,
2013-05-22 20:51:00,57.0,50.0,29.61,SW,220,10.0,25.0,78,0.00,,,-99.99,,2013-05-23 03:51:00,
2013-05-22 21:22:00,57.0,50.0,29.61,SW,220,10.0,25.0,78,0.00,,,-99.99,,2013-05-23 04:22:00,
2013-05-22 21:33:00,57.0,50.0,29.61,SW,220,10.0,25.0,78,0.00,,,-99.99,,2013-05-23 04:33:00,
2013-05-22 21:42:00,57.0,50.0,29.61,SW,220,10.0,25.0,78,0.00,,,-99.99,,2013-05-23 04:42:00,
2013-05-22 21:51:00,54.0,51.0,29.63,SSW,210,7.0,17.0,88,0.00,,,-99.99,,2013-05-23 04:51:00,
2013-05-22 22:22:00,54.0,51.0,29.63,SSW,210,7.0,17.0,88,0.00,,,-99.99,,2013-05-23 05:22:00,
2013-05-22 22:32:00,54.0,51.0,29.63,SSW,210,7.0,17.0,88,0.00,,,-99.99,,2013-05-23 05:32:00,
2013-05-22 22:42:00,54.0,51.0,29.63,SSW,210,7.0,17.0,88,0.00,,,-99.99,,2013-05-23 05:42:00,
2013-05-22 23:51:00,52.0,50.0,29.65,SSW,200,11.0,24.0,92,0.00,,,-99.99,,2013-05-23 06:51:00,